Flag for Finland Weather past 2 weeks in Rovaniemi, Finland

Now
34 °F

Sunny.


Feels Like: 26 °F
Forecast: 31 / 44 °F
Wind: 9 mph from Southwest

Location: Rovaniemi Airport

Current Time: Apr 22, 2015 at 7:24:29 AM

Latest Report: Apr 22, 2015 at 6:20 AM


Visibility: 10 mi

Pressure: 29.62 "Hg

Humidity: 93%

Dew point: 32 °F

Location of RovaniemiLocation

Historic Weather in Rovaniemi — Graph

°F

Rovaniemi temperature yesterday

Maximum temperature yesterday: 48 °F (at 3:50 PM)
Minimum temperature yesterday: 36 °F (at 5:50 AM)
Average temperature yesterday: 42 °F

Past Weeks' High & Low Weather Summary

 TemperatureHumidityPressure
High48 °F (Apr 21, 3:50 PM)100% (Apr 7, 8:50 AM)30.04 "Hg (Apr 7, 8:50 AM)
Low21 °F (Apr 11, 4:50 AM)33% (Apr 11, 6:50 PM)29.21 "Hg (Apr 10, 3:20 PM)
Average36 °F79%29.63 "Hg
* Reported Apr 7 6:20 AM — Apr 22 6:20 AM, Rovaniemi, Weather by CustomWeather, © 2015

Note: Actual official high and low records may vary slightly from our data, if they occured in-between our weather recording intervals... More about our weather records

Advertising

Rovaniemi weather history for previous 24 hours

 ConditionsComfort  
Time TempWeatherWind HumidityBarometerVisibility
6:20 AM
Wed, Apr 22
34 °FSunny.9 mph93%29.62 "Hg10 mi
5:20 AM36 °FClear.8 mph87%29.65 "Hg10 mi
4:50 AM36 °FClear.9 mph87%29.68 "Hg10 mi
4:20 AM36 °FClear.8 mph87%29.68 "Hg10 mi
3:50 AM37 °FClear.6 mph81%29.71 "Hg10 mi
3:20 AM39 °FClear.5 mph75%29.74 "Hg10 mi
2:50 AM39 °FClear.6 mph75%29.77 "Hg10 mi
2:20 AM39 °FClear.6 mph75%29.80 "Hg10 mi
1:50 AM37 °FClear.8 mph81%29.83 "Hg10 mi
1:20 AM36 °FClear.9 mph87%29.83 "Hg10 mi
12:50 AM37 °FClear.7 mph81%29.86 "Hg10 mi
12:20 AM39 °FClear.6 mph75%29.86 "Hg10 mi
11:50 PM
Tue, Apr 21
45 °FClear.5 mph66%29.89 "Hg10 mi
11:20 PM43 °FClear.3 mph66%29.89 "Hg10 mi
10:50 PM43 °FClear.3 mph71%29.92 "Hg10 mi
10:20 PM43 °FSunny.3 mph71%29.92 "Hg10 mi
9:50 PM41 °FSunny.2 mph76%29.92 "Hg10 mi
9:20 PM43 °FSunny.2 mph71%29.95 "Hg10 mi
8:50 PM45 °FPartly sunny.3 mph66%29.95 "HgN/A
8:20 PM46 °FPartly sunny.3 mph62%29.95 "HgN/A
7:50 PM46 °FOvercast.3 mph62%29.98 "HgN/A
7:20 PM46 °FMore clouds than sun.2 mph62%29.98 "HgN/A
6:50 PM46 °FOvercast.1 mph62%29.98 "HgN/A
6:20 PM48 °FOvercast.1 mph58%29.98 "HgN/A
5:50 PM48 °FMostly cloudy.3 mph58%29.98 "HgN/A
5:20 PM46 °FMostly cloudy.5 mph62%29.98 "HgN/A
4:50 PM48 °FMostly cloudy.6 mph58%29.98 "HgN/A
4:20 PM48 °FBroken clouds.8 mph58%29.98 "HgN/A
3:50 PM48 °FPartly sunny.8 mph58%29.98 "HgN/A
3:20 PM46 °FSunny.6 mph62%29.98 "Hg10 mi
2:50 PM45 °FPartly sunny.10 mph66%30.01 "HgN/A
2:20 PM45 °FPartly sunny.8 mph66%30.01 "HgN/A
1:50 PM45 °FBroken clouds.9 mph66%30.01 "HgN/A
1:20 PM45 °FSunny.10 mph66%30.01 "Hg10 mi
12:50 PM45 °FSunny.10 mph66%30.01 "Hg10 mi
12:20 PM43 °FBroken clouds.9 mph71%30.01 "HgN/A
11:50 AM43 °FPartly sunny.10 mph71%30.01 "HgN/A
11:20 AM43 °FBroken clouds.9 mph71%30.01 "HgN/A
10:50 AM43 °FPartly sunny.10 mph71%29.98 "HgN/A
10:20 AM41 °FPartly sunny.8 mph76%30.01 "HgN/A
9:50 AM41 °FPartly sunny.6 mph76%29.98 "HgN/A
9:20 AM41 °FPartly sunny.6 mph76%29.98 "HgN/A
8:50 AM39 °FSunny.7 mph81%30.01 "Hg10 mi
8:20 AM39 °FPassing clouds.7 mph75%29.98 "HgN/A
7:50 AM39 °FPassing clouds.10 mph75%29.98 "HgN/A
7:20 AM37 °FSunny.7 mph81%29.98 "Hg10 mi
Weather by CustomWeather, © 2015

See weather overviewHow to use our weather pages